Find Starlink 38299

NORAD ID: 100316 Int'l Des: 2026-184 Owner: SPXS Country: US Constellation: starlink operational

Aktuelle Ansicht

3D-Globus wird geladen...

About Starlink 38299

Starlink 38299 (NORAD 100316) is a starlink constellation satellite launched Aug 12, 2026 by SPXS of US. with a mass of 575.00 kg.

Nächste Überflüge

Passes for default location (London). Set your location on the main map for personalized predictions.

Höhenverlauf

Loading altitude history...

Zweizeiliger Elementsatz

1 A0316U 26184R 26254.64458659 .00007083 00000-0 19804-3 0 9990
2 A0316 97.2832 119.8964 0001838 89.0390 271.1066 15.36981717 6007
Epoch: 11. Sept. 2026 • Age: 8 hours

Aktueller Status

Höhe 459.4 km
Apogäum / Perigäum N/A
Geschwindigkeit 7.64 km/s
Subsatellitenpunkt 36.67°N, 132.17°E
Startdatum 12. Aug. 2026
Alter 30 days
Typ internet

Technische Details

Klassifizierung Payload
Masse 575.00 kg
Trockenmasse 530.00 kg
Gesamtmasse 575.00 kg
Länge 0.30 m
Durchmesser 4.10 m
Spannweite 29.00 m
Form Box + pan
Hersteller SPXS
Bus-Typ Starlink V2MO
Phasenstatus In Orbit
Besitzer/Staat SPXS/US

Most Searched